Orbital Elements at Epoch 2459200.5 (2020-Dec-17.0) TDB
Reference: JPL 20 (heliocentric ecliptic J2000)
Element | Value | Uncertainty (1-sigma) | Units |
e | .2775750070845824 | 5.0705e-08 | |
a | 2.794680516276241 | 1.96e-08 | au |
q | 2.018947052171719 | 1.3739e-07 | au |
i | 10.85494594001255 | 6.094e-06 | deg |
node | 199.6192264477874 | 2.421e-05 | deg |
peri | 78.02779324191853 | 2.6896e-05 | deg |
M | 156.5615202157428 | 1.3099e-05 | deg |
tp | 2458458.371335306039 (2018-Dec-05.87133531) | 5.7582e-05 | TDB |
period | 1706.462219590543 4.67 | 1.7952e-05 4.915e-08 | d yr |
n | .2109627719073559 | 2.2193e-09 | deg/d |
Q | 3.570413980380764 | 2.504e-08 | au |
|
| | Orbit Determination Parameters
Additional Information
|